Starlink 34299

operational
NORAD ID: 64383 Int'l Des: 2025-127 Owner: SPXS Country: US Constellation: starlink
LEOCIRCULAR

Starlink 34299について

説明を読み込み中...

リアルタイム位置

3D地球を読み込み中...

次回通過

高度履歴

Altitude vs Time

uPlot chart will show altitude changes over time

軌道要素

1 64383U 25127P 26062.48450373 .00026538 00000-0 97037-3 0 9994
2 64383 42.9990 215.2092 0001618 213.0854 146.9897 15.27581328 41460
Epoch: Mar 3, 2026 • Age: 25 hours

現在のステータス

高度 481.9 km
速度 7.63 km/s
衛星直下点 19.87°N, 164.92°W
打ち上げ日 Jun 13, 2025
運用期間 0.7 years
タイプ internet

技術仕様

分類 Payload
質量 575.00 kg
乾燥質量 530.00 kg
総質量 575.00 kg
長さ 0.30 m
直径 4.10 m
スパン 29.00 m
形状 Box + pan
製造者 SPXS
バスタイプ Starlink V2MO
フェーズステータス In Orbit
所有者/国 SPXS/US

大規模コンステレーション

Loading constellations...